EW0609 Weather Reports


Display with metric or nautical units.
time (UTC)temp
F
wind
direction
speed
MPH
gust
MPH
rain 1hr
in
rain 24hr
in
rain mn
in
humidity
%
barometer
mb
20260510032339 76 87 3.0 10.0 0.00 0.00 0.00 26 1010.1
20260510032226 77 109 2.0 7.0 0.00 0.00 0.00 25 1010.0
20260510031338 77 78 2.0 7.0 0.00 0.00 0.00 25 1009.8
20260510031123 78 58 0.0 3.0 0.00 0.00 0.00 22 1009.4
20260510031006 78 104 1.0 5.0 0.00 0.00 0.00 25 1009.5
20260510025839 78 71 0.0 4.0 0.00 0.00 0.00 22 1009.3
20260510025724 79 0 1.0 6.0 0.00 0.00 0.00 20 1009.1
20260510024839 79 0 1.0 6.0 0.00 0.00 0.00 21 1008.9
20260510024338 78 34 2.0 3.0 0.00 0.00 0.00 20 1008.9
20260510023839 78 20 1.0 3.0 0.00 0.00 0.00 21 1008.8
20260510023724 77 34 1.0 3.0 0.00 0.00 0.00 24 1008.7
20260510022839 78 14 0.0 4.0 0.00 0.00 0.00 24 1008.6
20260510022339 78 58 2.0 4.0 0.00 0.00 0.00 24 1008.4
20260510021839 79 54 1.0 4.0 0.00 0.00 0.00 20 1008.3
20260510021339 80 100 0.0 4.0 0.00 0.00 0.00 18 1008.1
20260510020838 80 44 0.0 4.0 0.00 0.00 0.00 19 1007.9
20260510020338 81 87 0.0 4.0 0.00 0.00 0.00 17 1007.8
20260510020230 81 73 1.0 4.0 0.00 0.00 0.00 17 1007.7
20260510015339 80 99 0.0 3.0 0.00 0.00 0.00 18 1007.7
20260510014838 81 106 1.0 3.0 0.00 0.00 0.00 19 1007.6
20260510014340 80 82 1.0 3.0 0.00 0.00 0.00 21 1007.6
20260510013839 80 63 1.0 3.0 0.00 0.00 0.00 20 1007.5
20260510013340 81 75 0.0 3.0 0.00 0.00 0.00 22 1007.4
20260510013226 81 24 1.0 3.0 0.00 0.00 0.00 18 1007.2
20260510012338 81 28 0.0 1.0 0.00 0.00 0.00 19 1007.4
20260510011839 81 25 0.0 2.0 0.00 0.00 0.00 19 1007.2
20260510011339 82 21 1.0 2.0 0.00 0.00 0.00 19 1007.1
20260510010839 82 30 1.0 2.0 0.00 0.00 0.00 19 1007.2
20260510010338 84 4 0.0 4.0 0.00 0.00 0.00 18 1007.1
20260510005838 85 4 0.0 4.0 0.00 0.00 0.00 16 1007.1
20260510005338 86 358 1.0 3.0 0.00 0.00 0.00 16 1007.0
20260510004839 86 3 2.0 3.0 0.00 0.00 0.00 15 1007.0
20260510004724 86 21 1.0 5.0 0.00 0.00 0.00 16 1007.0
20260510004228 86 1 2.0 6.0 0.00 0.00 0.00 15 1007.1
20260510003338 87 0 2.0 6.0 0.00 0.00 0.00 15 1007.2
20260510002841 87 16 5.0 6.0 0.00 0.00 0.00 16 1007.2
20260510002338 87 52 1.0 4.0 0.00 0.00 0.00 14 1007.2
20260510001842 88 16 0.0 3.0 0.00 0.00 0.00 14 1007.1
20260510001338 88 286 0.0 5.0 0.00 0.00 0.00 13 1007.2
20260510000838 88 350 2.0 5.0 0.00 0.00 0.00 13 1007.2
20260510000341 88 358 2.0 9.0 0.00 0.00 0.00 14 1007.2
20260509235838 89 302 5.0 9.0 0.00 0.00 0.00 13 1007.4
20260509235339 89 333 2.0 5.0 0.00 0.00 0.00 13 1007.5
20260509234838 89 354 4.0 6.0 0.00 0.00 0.00 15 1007.5
20260509234338 90 0 4.0 9.0 0.00 0.00 0.00 12 1007.5
20260509233838 90 18 4.0 12.0 0.00 0.00 0.00 12 1007.4
20260509233730 90 0 2.0 13.0 0.00 0.00 0.00 12 1007.5
20260509232840 91 338 6.0 13.0 0.00 0.00 0.00 13 1007.5
20260509232340 90 305 2.0 12.0 0.00 0.00 0.00 16 1007.6
20260509231838 90 323 5.0 12.0 0.00 0.00 0.00 14 1007.7
20260509231338 90 296 3.0 15.0 0.00 0.00 0.00 16 1007.7
20260509230839 90 268 6.0 15.0 0.00 0.00 0.00 14 1007.7
20260509230339 91 314 3.0 14.0 0.00 0.00 0.00 13 1007.6
20260509225839 91 238 4.0 14.0 0.00 0.00 0.00 14 1007.7
20260509225338 91 326 7.0 14.0 0.00 0.00 0.00 13 1007.7
20260509224839 91 262 6.0 16.0 0.00 0.00 0.00 15 1007.8
20260509224338 91 285 7.0 16.0 0.00 0.00 0.00 14 1007.7
20260509223838 92 317 5.0 15.0 0.00 0.00 0.00 15 1007.7
20260509223339 92 344 6.0 15.0 0.00 0.00 0.00 14 1007.7
20260509222838 91 340 6.0 13.0 0.00 0.00 0.00 15 1007.7
20260509222339 91 207 6.0 14.0 0.00 0.00 0.00 14 1007.6
20260509221839 91 247 8.0 15.0 0.00 0.00 0.00 13 1007.6
20260509221340 91 276 4.0 15.0 0.00 0.00 0.00 15 1007.6
20260509221228 92 226 8.0 13.0 0.00 0.00 0.00 14 1007.7
20260509220338 92 250 8.0 13.0 0.00 0.00 0.00 14 1007.8
20260509215839 92 240 4.0 13.0 0.00 0.00 0.00 16 1007.8
20260509215338 92 259 5.0 16.0 0.00 0.00 0.00 15 1007.7
20260509214838 91 282 8.0 16.0 0.00 0.00 0.00 17 1007.8
20260509214726 90 303 1.0 16.0 0.00 0.00 0.00 16 1007.9
20260509213838 92 248 8.0 16.0 0.00 0.00 0.00 15 1008.0
20260509213338 92 268 6.0 14.0 0.00 0.00 0.00 17 1008.0
20260509213228 92 276 6.0 13.0 0.00 0.00 0.00 14 1008.0
20260509212338 92 295 5.0 13.0 0.00 0.00 0.00 15 1008.3
20260509211840 91 285 7.0 13.0 0.00 0.00 0.00 16 1008.1
20260509211437 92 219 3.0 15.0 0.00 0.00 0.00 16 1008.4
20260509211014 92 240 8.0 15.0 0.00 0.00 0.00 16 1008.4
20260509210227 91 0 7.0 14.0 0.00 0.00 0.00 19 1008.5
20260509205340 91 327 4.0 16.0 0.00 0.00 0.00 21 1008.7
20260509204838 92 224 6.0 16.0 0.00 0.00 0.00 19 1008.6
20260509204339 92 317 5.0 17.0 0.00 0.00 0.00 18 1008.7
20260509203837 92 307 6.0 17.0 0.00 0.00 0.00 20 1008.9
20260509203338 90 261 4.0 13.0 0.00 0.00 0.00 20 1009.0
20260509202838 91 344 6.0 13.0 0.00 0.00 0.00 20 1009.0
20260509202339 91 219 7.0 12.0 0.00 0.00 0.00 23 1009.0
20260509201838 90 252 4.0 12.0 0.00 0.00 0.00 21 1009.0
20260509201337 90 252 4.0 9.0 0.00 0.00 0.00 22 1009.1
20260509200839 90 282 4.0 14.0 0.00 0.00 0.00 22 1009.3
20260509200730 90 312 6.0 14.0 0.00 0.00 0.00 22 1009.4
20260509195840 89 265 3.0 12.0 0.00 0.00 0.00 21 1009.4
20260509195338 90 227 6.0 11.0 0.00 0.00 0.00 22 1009.5
20260509194837 90 228 4.0 11.0 0.00 0.00 0.00 23 1009.5
20260509194727 88 276 4.0 13.0 0.00 0.00 0.00 24 1009.6
20260509193839 89 312 2.0 17.0 0.00 0.00 0.00 22 1009.6
20260509193338 90 344 6.0 17.0 0.00 0.00 0.00 23 1009.8
20260509192839 91 245 8.0 13.0 0.00 0.00 0.00 23 1009.8
20260509192339 89 262 3.0 7.0 0.00 0.00 0.00 25 1009.9
20260509192227 87 341 3.0 11.0 0.00 0.00 0.00 25 1009.9
20260509191338 88 259 3.0 13.0 0.00 0.00 0.00 25 1010.0
20260509190837 89 235 9.0 13.0 0.00 0.00 0.00 25 1010.1
20260509190338 89 233 4.0 10.0 0.00 0.00 0.00 26 1010.1
20260509190124 87 221 5.0 13.0 0.00 0.00 0.00 26 1010.4
20260509190011 87 295 3.0 13.0 0.00 0.00 0.00 27 1010.1
20260509184838 87 247 5.0 15.0 0.00 0.00 0.00 25 1010.5
20260509184338 86 154 6.0 15.0 0.00 0.00 0.00 24 1010.6
20260509184221 87 252 6.0 15.0 0.00 0.00 0.00 26 1010.7
20260509183337 87 227 6.0 15.0 0.00 0.00 0.00 25 1010.6
20260509182837 87 240 9.0 15.0 0.00 0.00 0.00 25 1010.8
20260509182337 87 212 7.0 14.0 0.00 0.00 0.00 27 1010.8
20260509181839 86 240 5.0 14.0 0.00 0.00 0.00 26 1010.9
20260509181339 86 230 5.0 17.0 0.00 0.00 0.00 26 1011.0
20260509180838 86 235 9.0 17.0 0.00 0.00 0.00 27 1011.1
20260509180338 86 159 4.0 14.0 0.00 0.00 0.00 27 1011.3
20260509175838 87 254 4.0 14.0 0.00 0.00 0.00 27 1011.3
20260509175338 86 171 5.0 10.0 0.00 0.00 0.00 30 1011.4
20260509174837 86 231 5.0 12.0 0.00 0.00 0.00 31 1011.4
20260509174339 86 100 5.0 12.0 0.00 0.00 0.00 30 1011.5
20260509174126 84 196 5.0 13.0 0.00 0.00 0.00 31 1011.5
20260509174009 85 220 6.0 12.0 0.00 0.00 0.00 30 1011.5
20260509172838 84 251 6.0 15.0 0.00 0.00 0.00 32 1011.6
20260509172340 83 250 10.0 15.0 0.00 0.00 0.00 31 1011.9
20260509171840 84 250 3.0 14.0 0.00 0.00 0.00 31 1011.9
20260509171338 83 161 4.0 16.0 0.00 0.00 0.00 34 1011.9
20260509171226 82 214 10.0 17.0 0.00 0.00 0.00 32 1012.0
20260509170339 83 221 8.0 17.0 0.00 0.00 0.00 32 1012.2
20260509165838 83 202 6.0 18.0 0.00 0.00 0.00 32 1012.2
20260509165338 82 210 7.0 18.0 0.00 0.00 0.00 34 1012.2
20260509164838 82 171 8.0 16.0 0.00 0.00 0.00 32 1012.4
20260509164337 82 171 5.0 16.0 0.00 0.00 0.00 33 1012.4
20260509163837 82 97 4.0 13.0 0.00 0.00 0.00 34 1012.4
20260509163338 82 159 6.0 13.0 0.00 0.00 0.00 35 1012.4
20260509162838 82 192 6.0 17.0 0.00 0.00 0.00 35 1012.5
20260509162339 80 162 9.0 17.0 0.00 0.00 0.00 36 1012.6
20260509161837 80 142 7.0 16.0 0.00 0.00 0.00 37 1012.6
20260509161338 80 185 6.0 16.0 0.00 0.00 0.00 37 1012.6
20260509160837 80 142 8.0 16.0 0.00 0.00 0.00 35 1012.6
20260509160618 79 135 7.0 19.0 0.00 0.00 0.00 36 1012.7
20260509160507 79 166 6.0 19.0 0.00 0.00 0.00 37 1012.7
20260509155338 79 202 5.0 13.0 0.00 0.00 0.00 38 1012.6
20260509154838 78 180 7.0 14.0 0.00 0.00 0.00 39 1012.7
20260509154337 78 180 8.0 14.0 0.00 0.00 0.00 40 1012.9
20260509153839 78 171 7.0 12.0 0.00 0.00 0.00 40 1013.0
20260509153338 77 142 6.0 12.0 0.00 0.00 0.00 43 1012.9
20260509152838 76 204 3.0 10.0 0.00 0.00 0.00 42 1012.9
20260509152338 76 116 6.0 11.0 0.00 0.00 0.00 45 1013.0
20260509151837 76 130 6.0 11.0 0.00 0.00 0.00 43 1013.0
20260509151337 75 148 5.0 11.0 0.00 0.00 0.00 44 1013.2
20260509150836 74 158 4.0 7.0 0.00 0.00 0.00 46 1013.3
20260509150336 74 152 2.0 5.0 0.00 0.00 0.00 47 1013.3
20260509145837 73 110 0.0 6.0 0.00 0.00 0.00 50 1013.4
20260509145508 71 120 4.0 7.0 0.00 0.00 0.00 52 1013.4
20260509145458 71 128 1.0 6.0 0.00 0.00 0.00 53 1013.4
20260509145422 72 134 3.0 6.0 0.00 0.00 0.00 51 1013.4
20260509144121 71 155 4.0 7.0 0.00 0.00 0.00 55 1013.4
20260509144009 71 166 3.0 7.0 0.00 0.00 0.00 53 1013.5
20260509143228 69 192 3.0 7.0 0.00 0.00 0.00 58 1013.5
20260509142337 68 212 0.0 5.0 0.00 0.00 0.00 60 1013.5
20260509141838 68 134 1.0 5.0 0.00 0.00 0.00 61 1013.5
20260509141719 68 207 3.0 5.0 0.00 0.00 0.00 61 1013.6
20260509141223 67 107 1.0 4.0 0.00 0.00 0.00 62 1013.6
20260509140728 67 144 2.0 3.0 0.00 0.00 0.00 61 1013.6
20260509135839 66 216 1.0 4.0 0.00 0.00 0.00 61 1013.6
20260509135337 65 99 2.0 4.0 0.00 0.00 0.00 61 1013.6
20260509135228 65 138 0.0 0.0 0.00 0.00 0.00 60 1013.5
20260509134338 64 141 0.0 0.0 0.00 0.00 0.00 60 1013.5
20260509133837 64 0 0.0 0.0 0.00 0.00 0.00 59 1013.6
20260509133338 63 141 0.0 0.0 0.00 0.00 0.00 57 1013.6
20260509132837 62 141 0.0 0.0 0.00 0.00 0.00 57 1013.6
20260509132337 62 141 0.0 2.0 0.00 0.00 0.00 58 1013.7
20260509131836 61 141 0.0 3.0 0.00 0.00 0.00 56 1013.7
20260509131339 61 103 1.0 3.0 0.00 0.00 0.00 55 1013.6
20260509130838 60 100 1.0 2.0 0.00 0.00 0.00 57 1013.5
20260509130722 59 124 0.0 2.0 0.00 0.00 0.00 57 1013.5
20260509125838 58 159 0.0 2.0 0.00 0.00 0.00 57 1013.5
20260509125337 58 159 0.0 3.0 0.00 0.00 0.00 58 1013.4
20260509124838 57 182 1.0 3.0 0.00 0.00 0.00 59 1013.3
20260509124338 56 116 0.0 3.0 0.00 0.00 0.00 61 1013.4
20260509124222 55 168 0.0 2.0 0.00 0.00 0.00 61 1013.3
20260509123729 55 162 0.0 3.0 0.00 0.00 0.00 62 1013.3
20260509122837 54 180 0.0 3.0 0.00 0.00 0.00 62 1013.3
20260509122337 54 142 0.0 3.0 0.00 0.00 0.00 63 1013.3
20260509121838 53 190 1.0 3.0 0.00 0.00 0.00 63 1013.3
20260509121736 54 166 0.0 3.0 0.00 0.00 0.00 62 1013.2
20260509120838 53 148 1.0 3.0 0.00 0.00 0.00 63 1013.2
20260509120337 53 155 0.0 3.0 0.00 0.00 0.00 63 1013.3
20260509115839 53 186 0.0 0.0 0.00 0.00 0.00 63 1013.3
20260509115338 53 186 0.0 2.0 0.00 0.00 0.00 63 1013.2
20260509114840 53 183 0.0 2.0 0.00 0.00 0.00 62 1013.2
20260509114338 53 171 0.0 1.0 0.00 0.00 0.00 62 1013.0
20260509113838 53 175 0.0 2.0 0.00 0.00 0.00 61 1013.2
20260509113337 53 166 1.0 3.0 0.00 0.00 0.00 61 1013.2
20260509113225 54 161 0.0 3.0 0.00 0.00 0.00 60 1013.2
20260509112338 54 166 0.0 2.0 0.00 0.00 0.00 60 1013.2
20260509111837 54 173 0.0 2.0 0.00 0.00 0.00 59 1013.0
20260509111338 55 161 0.0 5.0 0.00 0.00 0.00 58 1013.2
20260509110838 55 133 2.0 5.0 0.00 0.00 0.00 58 1013.2
20260509110338 55 106 2.0 5.0 0.00 0.00 0.00 58 1013.4
20260509105838 55 103 2.0 6.0 0.00 0.00 0.00 58 1013.4
20260509105337 55 118 3.0 6.0 0.00 0.00 0.00 57 1013.5
20260509104836 55 149 2.0 4.0 0.00 0.00 0.00 57 1013.5
20260509104338 56 145 2.0 6.0 0.00 0.00 0.00 56 1013.4
20260509103838 56 145 2.0 7.0 0.00 0.00 0.00 56 1013.4
20260509103337 56 110 3.0 7.0 0.00 0.00 0.00 56 1013.4
20260509102837 56 117 4.0 9.0 0.00 0.00 0.00 56 1013.4
20260509102340 56 131 2.0 9.0 0.00 0.00 0.00 55 1013.5
20260509101837 56 124 4.0 9.0 0.00 0.00 0.00 55 1013.5
20260509101337 56 155 4.0 9.0 0.00 0.00 0.00 54 1013.5
20260509101227 56 99 2.0 6.0 0.00 0.00 0.00 54 1013.4
20260509100338 56 147 2.0 6.0 0.00 0.00 0.00 54 1013.6
20260509095837 56 173 3.0 6.0 0.00 0.00 0.00 54 1013.5
20260509095338 56 118 2.0 7.0 0.00 0.00 0.00 54 1013.6
20260509094841 56 134 3.0 7.0 0.00 0.00 0.00 54 1013.6
20260509094338 56 120 3.0 7.0 0.00 0.00 0.00 54 1013.5
20260509094227 56 124 3.0 7.0 0.00 0.00 0.00 53 1013.6
20260509093339 56 144 4.0 9.0 0.00 0.00 0.00 52 1013.4
20260509092839 57 123 3.0 9.0 0.00 0.00 0.00 52 1013.4
20260509092339 57 104 5.0 9.0 0.00 0.00 0.00 52 1013.4
20260509091838 57 124 4.0 10.0 0.00 0.00 0.00 51 1013.3
20260509091339 57 104 6.0 10.0 0.00 0.00 0.00 51 1013.2
20260509090837 57 111 6.0 10.0 0.00 0.00 0.00 51 1013.2
20260509090337 57 134 5.0 7.0 0.00 0.00 0.00 51 1013.2
20260509085838 57 134 4.0 7.0 0.00 0.00 0.00 51 1013.3
20260509085337 57 117 4.0 7.0 0.00 0.00 0.00 51 1013.3
20260509085228 57 133 4.0 10.0 0.00 0.00 0.00 50 1013.4
20260509084337 58 117 5.0 10.0 0.00 0.00 0.00 50 1013.5
20260509083837 58 96 4.0 11.0 0.00 0.00 0.00 50 1013.4
20260509083337 58 103 6.0 11.0 0.00 0.00 0.00 50 1013.4
20260509082837 58 134 6.0 10.0 0.00 0.00 0.00 50 1013.3
20260509082721 58 114 6.0 10.0 0.00 0.00 0.00 50 1013.3
20260509082222 58 104 6.0 10.0 0.00 0.00 0.00 50 1013.3
20260509081337 58 103 5.0 12.0 0.00 0.00 0.00 50 1013.3
20260509081219 58 120 6.0 12.0 0.00 0.00 0.00 50 1013.3
20260509080337 58 114 5.0 12.0 0.00 0.00 0.00 49 1013.3
20260509075837 58 111 4.0 12.0 0.00 0.00 0.00 49 1013.3
20260509075337 59 120 4.0 12.0 0.00 0.00 0.00 49 1013.4
20260509075229 59 117 8.0 12.0 0.00 0.00 0.00 48 1013.3
20260509074337 59 133 6.0 13.0 0.00 0.00 0.00 47 1013.5
20260509073837 60 111 6.0 13.0 0.00 0.00 0.00 46 1013.4
20260509073337 62 121 8.0 15.0 0.00 0.00 0.00 44 1013.4
20260509072838 63 124 6.0 15.0 0.00 0.00 0.00 43 1013.3
20260509072337 63 100 6.0 14.0 0.00 0.00 0.00 43 1013.2
20260509071838 63 79 6.0 14.0 0.00 0.00 0.00 43 1013.2
20260509071724 63 125 6.0 12.0 0.00 0.00 0.00 43 1013.0
20260509070837 63 56 5.0 13.0 0.00 0.00 0.00 43 1013.2
20260509070337 63 85 5.0 13.0 0.00 0.00 0.00 43 1012.9
20260509070222 62 104 4.0 10.0 0.00 0.00 0.00 43 1013.0
20260509065336 62 79 4.0 9.0 0.00 0.00 0.00 43 1013.0
20260509064839 62 76 4.0 9.0 0.00 0.00 0.00 43 1013.2
20260509064716 63 90 3.0 9.0 0.00 0.00 0.00 42 1013.0
20260509063839 64 65 4.0 9.0 0.00 0.00 0.00 42 1012.8
20260509063337 64 87 2.0 9.0 0.00 0.00 0.00 41 1012.8
20260509062837 64 102 3.0 12.0 0.00 0.00 0.00 41 1012.9
20260509062337 65 87 2.0 14.0 0.00 0.00 0.00 41 1012.8
20260509062225 65 114 5.0 14.0 0.00 0.00 0.00 41 1013.2
20260509061336 65 92 6.0 13.0 0.00 0.00 0.00 41 1013.0
20260509060836 64 86 3.0 7.0 0.00 0.00 0.00 41 1013.2
20260509060338 65 54 3.0 9.0 0.00 0.00 0.00 41 1013.0
20260509055838 65 94 4.0 9.0 0.00 0.00 0.00 40 1013.3
20260509055337 65 90 4.0 10.0 0.00 0.00 0.00 40 1013.2
20260509054837 65 106 5.0 10.0 0.00 0.00 0.00 39 1013.0
20260509054337 66 110 5.0 9.0 0.00 0.00 0.00 39 1013.2
20260509053837 66 109 4.0 9.0 0.00 0.00 0.00 39 1013.2
20260509053337 66 103 4.0 9.0 0.00 0.00 0.00 39 1013.0
20260509052837 66 99 6.0 9.0 0.00 0.00 0.00 39 1013.2
20260509052337 66 109 3.0 12.0 0.00 0.00 0.00 39 1013.2
20260509051841 66 93 3.0 12.0 0.00 0.00 0.00 38 1012.9
20260509051337 66 103 5.0 7.0 0.00 0.00 0.00 38 1013.4
20260509050838 66 128 4.0 7.0 0.00 0.00 0.00 39 1013.2
20260509050337 66 113 2.0 9.0 0.00 0.00 0.00 38 1013.0
20260509045838 67 109 5.0 9.0 0.00 0.00 0.00 38 1013.3
20260509045731 67 117 5.0 9.0 0.00 0.00 0.00 37 1013.2
20260509044837 67 106 4.0 7.0 0.00 0.00 0.00 37 1013.2
20260509044336 67 97 4.0 5.0 0.00 0.00 0.00 37 1013.3
20260509043836 68 134 2.0 5.0 0.00 0.00 0.00 37 1013.2
20260509043336 67 103 0.0 6.0 0.00 0.00 0.00 37 1013.3
20260509042838 67 106 3.0 6.0 0.00 0.00 0.00 37 1013.3
20260509042729 67 100 2.0 6.0 0.00 0.00 0.00 37 1013.2
20260509041837 68 107 3.0 6.0 0.00 0.00 0.00 37 1013.2
20260509041336 68 109 3.0 7.0 0.00 0.00 0.00 37 1013.2
20260509040836 68 110 4.0 7.0 0.00 0.00 0.00 36 1013.2
20260509040716 68 103 4.0 6.0 0.00 0.00 0.00 36 1013.2
20260509035836 68 107 3.0 5.0 0.00 0.00 0.00 37 1013.2
20260509035337 68 89 1.0 4.0 0.00 0.00 0.00 36 1013.0
20260509034837 69 93 2.0 3.0 0.00 0.00 0.00 36 1013.0
20260509034336 69 107 0.0 7.0 0.00 0.00 0.00 35 1012.9
20260509033836 69 87 2.0 7.0 0.00 0.00 0.00 35 1012.9
20260509033724 70 103 2.0 6.0 0.00 0.00 0.00 35 1012.9
20260509032837 70 97 3.0 6.0 0.00 0.00 0.00 34 1012.9